Toluca Jose Maria, Mexico

9:11 PM CDT on May 20, 2018 (GMT -0500)
Lic Adolfo Lopez Mateos International

Weather History for MMTO - April, 2014

Change the Weather History Date:

Thursday, April 24, 2014

  Actual Average Record
Temperature  
Mean Temperature 58 °F -  
Max Temperature 75 °F 74 °F 80 °F (2002)
Min Temperature 42 °F 42 °F 35 °F (2012)
Degree Days  
Heating Degree Days 6    
Growing Degree Days 8 (Base 50)    
Moisture  
Dew Point 37 °F    
Average Humidity 55    
Maximum Humidity 87    
Minimum Humidity 17    
Precipitation  
Precipitation 0.00 in - - ()
Sea Level Pressure  
Sea Level Pressure 30.37 in    
Wind  
Wind Speed 4 mph ()    
Max Wind Speed 16 mph    
Max Gust Speed -    
Visibility 6.9 miles    
Events Rain , Thunderstorm    
Averages and records for this station are not official NWS values.
T = Trace of Precipitation, MM = Missing Value Source: Averaged Metar Reports

Daily Weather History Graph

Daily Weather History Graph

Search for Another Location

Airport or City:

Astronomy

Apr. 24, 2014 Rise Set
Actual Time 7:14 AM CDT 7:58 PM CDT
Civil Twilight 6:51 AM CDT 8:21 PM CDT
Nautical Twilight 6:25 AM CDT 8:48 PM CDT
Astronomical Twilight 5:57 AM CDT 9:15 PM CDT
Moon 3:45 AM CDT (4/24) 3:53 PM CDT (4/24)
Length of Visible Light 13h 29m
Length of Day
12h 44m
Waning Crescent, 24% of the Moon is Illuminated
Apr 24
Waning Crescent
Apr 29
New
May 6
First Quarter
May 14
Full
May 21
Last Quarter

Hourly Weather History & Observations

Time (CDT) Temp. Windchill Dew Point Humidity Pressure Visibility Wind Dir Wind Speed Gust Speed Precip Events Conditions
12:42 AM 46.4 °F 45.2 °F 37.4 °F 71% 30.38 in 8.0 mi East 3.5 mph - N/A   Scattered Clouds
1:41 AM 46.4 °F 44.3 °F 37.4 °F 71% 30.36 in 8.0 mi WSW 4.6 mph - N/A   Partly Cloudy
2:43 AM 44.6 °F 42.2 °F 37.4 °F 76% 30.36 in 7.0 mi SE 4.6 mph - N/A   Partly Cloudy
3:41 AM 42.8 °F - 39.2 °F 87% 30.35 in 7.0 mi Calm Calm - N/A   Partly Cloudy
4:41 AM 42.8 °F - 39.2 °F 87% 30.35 in 7.0 mi Calm Calm - N/A   Partly Cloudy
5:42 AM 42.8 °F - 37.4 °F 81% 30.36 in 8.0 mi Calm Calm - N/A   Partly Cloudy
6:42 AM 42.8 °F - 35.6 °F 76% 30.37 in 8.0 mi Calm Calm - N/A   Partly Cloudy
7:44 AM 44.6 °F 43.1 °F 37.4 °F 76% 30.40 in 8.0 mi WSW 3.5 mph - N/A   Mostly Cloudy
8:44 AM 50.0 °F - 39.2 °F 66% 30.42 in 7.0 mi Calm Calm - N/A   Mostly Cloudy
9:46 AM 57.2 °F - 39.2 °F 51% 30.44 in 7.0 mi Calm Calm - N/A   Mostly Cloudy
10:46 AM 62.6 °F - 37.4 °F 39% 30.44 in 7.0 mi NW 5.8 mph - N/A   Mostly Cloudy
11:49 AM 68.0 °F - 37.4 °F 33% 30.42 in 7.0 mi North 6.9 mph - N/A   Mostly Cloudy
12:53 PM 69.8 °F - 32.0 °F 25% 30.40 in 7.0 mi NW 4.6 mph - N/A   Mostly Cloudy
1:48 PM 75.2 °F - 42.8 °F 31% 30.37 in 8.0 mi West 5.8 mph - N/A   Mostly Cloudy
2:47 PM 73.4 °F - 32.0 °F 22% 30.33 in 8.0 mi NW 6.9 mph - N/A   Mostly Cloudy
3:48 PM 71.6 °F - 30.2 °F 22% 30.32 in 8.0 mi South 10.4 mph - N/A   Mostly Cloudy
4:56 PM 71.6 °F - 24.8 °F 17% 30.28 in 8.0 mi WSW 5.8 mph - N/A   Mostly Cloudy
5:41 PM 69.8 °F - 28.4 °F 21% 30.28 in 8.0 mi South 8.1 mph - N/A   Overcast
6:40 PM 68.0 °F - 30.2 °F 24% 30.29 in 8.0 mi WNW 8.1 mph - N/A   Mostly Cloudy
7:42 PM 60.8 °F - 35.6 °F 39% 30.34 in 8.0 mi NW 16.1 mph - N/A   Overcast
8:06 PM 53.6 °F - 44.6 °F 72% 30.37 in 4.0 mi NNW 16.1 mph - N/A Rain , Thunderstorm Light Thunderstorms and Rain
8:40 PM 53.6 °F - 44.6 °F 72% 30.39 in 4.0 mi NNE 12.7 mph - N/A Thunderstorm Thunderstorm
9:46 PM 53.6 °F - 44.6 °F 72% 30.41 in 4.0 mi SE 10.4 mph - N/A   Overcast
10:47 PM 53.6 °F - 44.6 °F 72% 30.41 in 4.0 mi SSE 8.1 mph - N/A   Mostly Cloudy
11:42 PM 53.6 °F - 46.4 °F 77% 30.42 in 4.0 mi SE 9.2 mph - N/A   Mostly Cloudy